www.pogodaiklimat.ru

Погода и климат >> Архив погоды >> Россия >> Якутия >> Юрты


ПОГОДА в Юртах

  • Прогноз погоды в Юртах
  • Монитор погоды в Юртах
  • Климат города

АРХИВ ПОГОДЫ в Юртах

Время (UTC), дата Ветер
(напр.,м/с)
 
Видим.   Явления Облачность Т
(С)
Тd
(С)
f
(%)
Тe
(С)
Тes
(С)
Комфортность P
(гПа)
Po
(гПа)
Тmin
(С)
Tmax
(С)
R
(мм)
S
(см)
00 19.03 штиль 0 50 км 1/0
[Ci fib]
-22.9 -26.2 74 -23 -19 1031.3 951.6
03 19.03 Ю 1 50 км ясно -15.8 -23.9 50 -18 -13 1027.6 950.8
06 19.03 штиль 0 50 км ясно -9.0 -20.0 40 -9 -7 1024.3 949.3
09 19.03 штиль 0 50 км ясно -15.9 -25.1 45 -16 -16 1024.5 947.7 -9.0
12 19.03 штиль 0 50 км ясно -25.3 -27.8 80 -25 -25 1028.3 948.6
15 19.03 штиль 0 50 км ясно -30.3 -32.1 84 -30 -30 1031.2 949.5
18 19.03 штиль 0 50 км ясно -30.5 -32.4 83 -31 -31 опасность
обморожения
1031.7 950.0
21 19.03 штиль 0 50 км ясно -31.5 -33.3 84 -32 -31 опасность
обморожения
1032.4 950.4 -31.5 24
00 20.03 штиль 0 50 км ясно -27.5 -29.3 85 -28 -24 1031.6 950.9
03 20.03 штиль 0 50 км ясно -18.0 -22.1 70 -18 -12 1026.8 949.3
06 20.03 штиль 0 50 км ясно -15.5 -21.5 60 -16 -13 1024.5 947.9
09 20.03 штиль 0 50 км 3/0
[Ci fib]
-17.5 -24.4 55 -18 -18 1024.7 947.5 -15.5
12 20.03 штиль 0 50 км ясно -26.0 -26.0 100 -26 -26 1028.9 948.8
15 20.03 штиль 0 50 км ясно -30.5 -31.2 94 -31 -31 опасность
обморожения
1030.4 948.8
18 20.03 штиль 0 50 км ясно -33.0 -34.2 89 -33 -33 опасность
обморожения
1032.1 949.5
21 20.03 штиль 0 50 км ясно -33.3 -35.0 85 -33 -33 опасность
обморожения
1032.4 949.7 -33.3 24
00 21.03 Ю 1 50 км ясно -25.6 -26.8 90 -29 -26 1030.1 950.1
03 21.03 Ю 1 50 км 4/0
[Ci fib]
-18.2 -24.1 60 -21 -16 1027.5 950.0
06 21.03 Ю 1 50 км 3/0
[Ci fib]
-15.0 -24.3 45 -18 -15 1026.1 949.5
09 21.03 штиль 0 50 км ясно -17.5 -22.5 65 -18 -18 1026.6 949.3 -15.0
12 21.03 штиль 0 50 км ясно -25.5 -26.7 90 -26 -26 1030.0 950.0
15 21.03 штиль 0 50 км ясно -29.0 -30.1 90 -29 -29 1031.4 950.2
18 21.03 ЮВ 2 50 км ясно -26.0 -27.1 90 -33 -33 опасность
обморожения
1030.7 950.5
21 21.03 ЮВ 2 50 км ясно -29.0 -30.1 90 -36 -36 опасность
обморожения
1030.4 949.3 -29.0 24
00 22.03 штиль 0 50 км ясно -26.0 -27.8 85 -26 -22 1031.8 951.5
03 22.03 штиль 0 50 км ясно -18.0 -23.9 60 -18 -12 1028.1 950.5
06 22.03 штиль 0 50 км ясно -15.5 -20.6 65 -16 -13 1025.5 948.8
09 22.03 штиль 0 50 км ясно -17.5 -20.4 78 -18 -18 1025.6 948.4 -15.5
12 22.03 штиль 0 50 км ясно -24.0 -25.2 90 -24 -24 1028.4 949.0
15 22.03 штиль 0 50 км ясно -24.0 -25.2 90 -24 -24 1028.4 949.0
18 22.03 ЮВ 1 50 км ясно -30.0 -31.1 90 -34 -34 опасность
обморожения
1032.1 950.5
21 22.03 штиль 0 50 км ясно -33.5 -34.7 89 -34 -33 опасность
обморожения
1034.8 951.9 -36.5 24
00 23.03 штиль 0 50 км ясно -24.0 -25.2 90 -24 -20 1032.2 952.5
03 23.03 штиль 0 50 км ясно -18.5 -23.5 65 -19 -12 1029.9 952.0
06 23.03 штиль 0 50 км ясно -13.5 -18.7 65 -14 -11 1027.8 951.5
09 23.03 штиль 0 50 км ясно -15.5 -22.5 55 -16 -16 1027.6 950.8 -13.5
12 23.03 штиль 0 50 км ясно -24.0 -25.2 90 -24 -24 1030.4 950.8
15 23.03 штиль 0 50 км ясно -27.0 -28.2 89 -27 -27 1031.8 951.2
18 23.03 штиль 0 50 км ясно -29.5 -30.7 89 -30 -30 1031.7 950.5
21 23.03 штиль 0 50 км ясно -33.0 -34.2 89 -33 -33 опасность
обморожения
1033.0 950.4 -33.0 24
00 24.03 штиль 0 50 км ясно -24.0 -27.2 75 -24 -20 1029.7 950.2
03 24.03 штиль 0 50 км ясно -18.0 -23.0 65 -18 -11 1025.4 948.0
06 24.03 штиль 0 50 км ясно -13.3 -22.8 45 -13 -10 1022.1 946.4
09 24.03 штиль 0 50 км ясно -16.4 -24.4 50 -16 -16 1022.4 945.6 -13.3
12 24.03 штиль 0 50 км ясно -23.6 -25.5 84 -24 -24 1025.0 946.0
15 24.03 штиль 0 50 км ясно -25.0 -26.8 85 -25 -25 1025.5 946.0
18 24.03 штиль 0 50 км ясно -28.1 -30.0 84 -28 -28 1026.1 946.0
21 24.03 штиль 0 50 км ясно -28.2 -30.0 84 -28 -28 1027.4 946.8 -28.2 24
00 25.03 Ю 2 50 км 3/0
[Ci fib]
-22.9 -25.5 79 -29 -26 1025.6 946.7
03 25.03 Ю 2 50 км 3/0
[Ci fib]
-15.3 -25.5 41 -20 -20 1025.6 946.7
06 25.03 Ю 1 50 км 3/0
[Ci fib]
-11.2 -22.1 40 -13 -11 1018.7 943.8
09 25.03 штиль 0 50 км ясно -16.4 -24.4 50 -16 -16 1021.8 945.1 -11.2
12 25.03 штиль 0 50 км ясно -24.2 -26.0 85 -24 -24 1025.4 946.4
15 25.03 штиль 0 50 км ясно -25.0 -26.1 90 -25 -25 1026.2 946.6
18 25.03 Ю 2 50 км 1/0
[Ci fib]
-25.0 -25.8 93 -32 -32 опасность
обморожения
1027.2 946.6
21 25.03 штиль 0 50 км ясно -28.0 -29.8 84 -28 -28 1027.7 947.1 -28.0 24

 

Местоположение метеостанции Юрты (Якутия, Россия): широта 64.05 долгота 141.80 высота над уровнем моря 590 м.

В архиве по умолчанию представлена погода в Юртах за последнюю неделю. Архивные данные за месяц целиком и за предыдущие месяцы, начиная с января 2011 года, Вы можете получить, выбрав интересующий диапазон дат из раскрывающегося списка и нажав кнопку "Ввод!".

Внимание! Время в таблицах - всемирное. Для получения местного времени необходимо прибавить поправку, которая в Юртах равна 10 ч.

Смотрите также архив погоды в соседних городах и на ближайших метеорологических станциях:

Погода в Агаякане (Якутия, Россия) (80 км)
Погода в Усть-Нере (Якутия, Россия) (82 км)
Погода в Оймяконе (Якутия, Россия) (110 км)
Погода в Восточной (Якутия, Россия) (142 км)
Погода в Делянкире (Якутия, Россия) (187 км)
Погода в Усть-Моме (Якутия, Россия) (275 км)
Погода в Теплом Ключе (Якутия, Россия) (286 км)
Погода в Томпо (Якутия, Россия) (293 км)
Погода в Иэме (Якутия, Россия) (317 км)
Погода в Сусумане (Магаданская область, Россия) (344 км)

Пояснения к столбцам:

Ветер - указаны скорость ветра в м/с - средняя за 10 мин, порывы в срок и между сроками (в фигурных скобках) и направление, откуда дует ветер: С - северный, СВ - северо-восточный, В - восточный, ЮВ - юго-восточный, Ю - южный, ЮЗ - юго-западный, З - западный, СЗ - северо-западный.
Видимость - горизонтальная дальность видимости в метрах или километрах. При видимости от 1 до 10 км при отсутствии осадков обычно наблюдается дымка, при ухудшении видимости до 1 км и менее - туман. В сухую погоду видимость может ухудшаться дымом, пылью или мглою.
Явления - указаны атмосферные явления, наблюдавшиеся в срок или в последний час перед сроком; фигурными скобками обозначены явления, наблюдавшиеся между сроками (за 1-3 часа до срока); квадратными скобками обозначены град или гололедные отложения с указанием их диаметра в мм.
Облачность - указаны через наклонную черту общая и нижняя облачность в баллах и высота нижней границы облаков в метрах; квадратными скобками обозначены формы облаков: Ci - перистые, Cs - перисто-слоистые, Cc - перисто-кучевые, Ac - высококучевые, As - высокослоистые, Sc - слоисто-кучевые, Ns - слоисто-дождевые, Cu - кучевые, Cb - кучево-дождевые. Подробнее классификацию облаков см. в Атласе облаков (PDF).
T - Температура воздуха - температура, измеренная на высоте 2 м над землей.
Td - Температура точки росы - температура, при понижении до которой содержащийся в воздухе водяной пар достигнет насыщения.
f - Относительная влажность воздуха - влажноcть воздуха, измеренная на высоте 2 м над землей.
Te - Эффективная температура - температура, которую ощущает одетый по сезону человек в тени. Характеристика душности погоды. При расчете учитывается влияние влажности воздуха и скорости ветра на теплоощущения человека.
Tes - Эффективная температура на солнце - температура, которую ощущает человек, с поправкой на солнечный нагрев. Характеристика знойности погоды. Зависит от высоты солнца над горизонтом, облачности и скорости ветра. Ночью, в пасмурную погоду, а также при ветре 12 м/с и более поправка равна нулю.
P - Атмосферное давление - приведенное к уровню моря атмосферное давление.
Po - Атмосферное давление - измеренное на уровне метеостанции атмосферное давление.
Tmin - Минимальная температура - минимум температуры воздуха на высоте 2 м над землей.
Tmax - Максимальная температура - максимум температуры воздуха на высоте 2 м над землей.
R - Количество осадков - Количество выпавших осадков, мм. При наведении курсора мыши на число - период времени, за который выпало указанное количество осадков.
S - Снежный покров - Высота снежного покрова, см. При наведении курсора мыши на число - состояние снежного покрова и степень покрытия местности в баллах.